RH
29 28 28 28 28 28 28 27 27 25 22 19 17 18 20 19 17 16 16 15 15 16 15 14 12 11 10 8 6 4 3 3 3 4 6 13 16 16 14 16 17 16 16 14 31 52 48 42 39 31 29 30 28 27 27 29 37 37 42 60 61 58 67 66 65 67 67 75 81 83 75 69 76 76 73 71 67 66 55 48 53 52 49 49 48 49 50 52
29 29 28 28 28 27 27 27 26 25 22 18 16 17 20 18 16 16 16 15 15 15 15 13 11 11 9 8 6 4 3 3 4 5 10 15 14 13 14 17 18 17 16 21 42 50 35 27 23 22 24 24 23 21 24 28 35 35 36 52 57 58 64 58 59 60 58 70 76 75 71 68 74 72 71 74 72 68 57 49 53 52 51 52 52 54 54 53
28 28 27 27 27 26 26 26 26 24 21 17 15 17 19 18 17 17 16 15 14 15 15 13 12 10 9 9 6 4 3 4 8 12 16 15 13 16 17 17 18 17 16 27 46 39 23 20 15 16 19 20 20 20 24 28 31 31 35 50 53 49 53 52 56 59 60 65 67 68 69 70 73 73 71 75 75 72 64 55 50 52 54 54 55 56 53 52
23 23 24 24 24 24 24 24 24 23 20 16 14 16 19 18 17 17 17 15 14 15 15 13 11 10 10 8 6 4 4 10 18 20 18 14 12 15 18 18 19 18 15 26 45 37 21 19 15 15 17 16 17 20 24 24 25 26 30 43 45 41 46 52 55 61 65 67 69 69 69 72 75 76 72 71 69 65 68 62 50 50 53 53 55 55 53 53
18 18 18 19 19 20 20 20 20 20 19 16 13 16 19 17 17 17 16 15 15 15 15 13 11 11 9 8 7 3 6 16 22 23 19 15 13 13 18 20 18 18 14 21 41 38 21 16 14 14 15 16 16 18 20 21 22 23 26 33 38 40 45 52 56 62 66 68 74 76 77 77 76 76 72 68 61 55 64 61 50 48 49 51 52 53 54 54
20 18 17 16 16 16 16 16 17 17 17 15 13 16 19 17 17 16 15 15 15 15 14 13 11 11 9 9 6 3 10 17 19 23 18 13 12 12 19 20 18 18 13 24 40 30 17 14 12 13 13 13 16 16 18 20 21 24 26 28 31 37 43 49 56 62 63 67 74 76 76 75 77 77 69 63 56 55 61 56 49 47 46 49 50 53 54 55
24 23 21 19 17 14 13 13 13 15 15 14 13 16 19 17 17 17 15 14 15 15 14 13 12 10 9 8 5 7 14 15 18 20 11 10 12 12 19 19 18 16 12 28 39 23 14 13 10 12 12 12 15 16 18 19 20 24 26 25 28 32 37 47 54 60 64 67 71 74 74 74 76 71 64 60 54 59 62 53 50 49 46 48 50 54 56 58
25 24 24 23 21 17 14 12 11 12 13 13 12 16 20 17 18 21 18 14 14 15 13 12 11 10 10 6 9 16 17 17 24 20 8 11 12 12 18 17 17 13 14 30 32 18 14 12 11 12 11 11 14 15 17 20 20 23 25 24 26 28 33 45 55 59 62 65 71 76 76 71 66 62 61 59 54 58 61 54 52 51 48 48 50 55 59 62
25 24 23 23 23 21 17 13 11 10 11 11 11 17 20 18 20 24 23 16 12 13 11 12 10 10 9 5 11 18 18 22 26 18 8 10 11 13 16 15 14 12 19 30 23 15 13 11 12 12 11 11 13 15 17 19 22 22 22 23 26 28 30 37 45 48 49 59 71 72 66 59 57 58 60 59 55 55 59 56 53 53 50 49 52 57 61 65
24 24 23 22 22 22 21 16 11 9 10 10 11 18 20 18 21 23 24 20 14 11 11 12 10 10 10 11 18 17 17 23 23 16 8 7 11 13 12 16 19 17 24 26 17 14 12 11 12 11 12 11 11 14 16 19 23 22 21 24 25 26 27 28 33 35 34 48 61 61 58 52 50 54 54 55 55 52 56 57 53 55 56 51 52 58 62 65
24 24 23 21 20 20 22 19 13 9 9 9 11 18 20 19 21 23 24 23 18 11 11 11 10 11 9 16 24 18 15 19 21 22 14 6 12 12 9 19 26 23 22 19 15 13 11 11 12 12 12 11 12 15 16 19 22 23 24 25 25 27 28 26 27 30 31 40 48 47 49 46 42 45 45 46 51 52 54 57 56 57 60 55 52 59 63 66
24 24 24 22 20 19 20 21 16 10 9 9 11 18 21 19 21 24 23 24 22 15 12 11 12 10 9 17 21 15 14 15 18 24 20 14 16 16 15 22 27 22 18 16 15 13 11 12 12 12 13 11 13 16 20 24 25 27 28 28 28 30 29 25 27 30 30 36 44 44 46 47 42 39 38 38 47 58 55 53 57 57 58 56 53 60 66 68
25 25 25 24 22 19 18 21 18 11 8 9 11 18 21 20 21 23 22 24 23 19 13 11 13 9 14 23 16 10 12 11 13 17 20 23 23 23 22 23 24 21 18 17 15 14 14 13 12 12 13 11 12 18 25 28 31 31 28 28 31 31 28 25 29 31 31 38 46 47 47 45 40 35 32 34 46 64 64 56 57 57 56 56 56 60 63 66
28 27 26 26 24 21 18 19 20 13 8 9 12 18 21 20 20 20 21 21 22 22 16 13 11 9 20 24 11 8 11 9 10 11 15 22 23 23 22 20 20 18 17 17 15 15 14 12 13 12 13 13 10 17 29 36 44 39 30 28 28 29 27 24 28 30 32 40 42 42 43 38 34 30 28 35 45 56 59 54 58 60 55 56 59 62 63 65
30 29 28 27 26 24 19 18 19 14 8 8 11 18 21 20 20 19 19 19 21 22 19 18 13 12 23 21 10 10 9 7 9 7 11 17 19 19 18 17 16 16 16 16 15 15 13 12 13 12 13 13 8 15 32 46 53 45 34 30 24 23 24 25 28 27 29 35 33 35 39 33 32 31 28 34 37 41 46 45 54 64 60 58 60 63 65 64
29 29 29 28 27 26 22 18 19 14 8 9 12 18 20 19 19 19 18 18 19 19 23 32 30 22 21 15 11 12 8 7 6 5 9 12 16 16 14 15 14 15 15 15 15 14 14 12 12 13 12 12 10 12 27 40 45 43 34 27 24 21 23 26 25 22 24 29 31 35 40 34 29 30 28 30 31 38 47 45 50 59 58 59 59 60 62 61
25 25 25 26 26 27 23 19 17 14 9 8 13 18 19 19 19 19 19 18 17 17 20 31 36 28 19 13 11 11 9 8 5 5 8 11 14 14 13 14 13 14 14 14 15 13 14 13 12 13 11 12 10 10 28 35 30 35 31 22 23 22 23 27 27 28 28 33 39 39 41 35 29 32 30 28 30 35 45 48 51 52 51 55 59 62 65 65
21 22 21 22 24 25 24 20 17 14 9 9 14 17 18 17 19 19 20 19 19 20 19 23 30 25 15 11 10 8 7 8 6 6 9 11 13 13 13 14 13 13 13 13 13 12 13 12 11 12 10 12 9 12 34 34 16 22 27 18 18 18 19 22 28 38 35 40 50 47 43 36 30 34 33 34 34 35 45 48 47 51 55 56 57 62 65 66
19 20 18 18 19 23 24 20 17 14 9 10 15 17 19 23 29 28 24 27 29 25 23 23 26 18 9 8 8 7 8 9 9 8 10 11 11 13 13 13 13 12 12 12 12 11 11 11 11 13 11 12 12 11 20 19 7 13 19 16 14 15 18 16 22 32 32 42 51 47 48 39 30 32 36 44 40 37 50 52 49 56 63 63 60 62 62 62
19 18 17 16 16 20 23 19 17 15 9 11 15 19 27 30 35 34 28 34 36 27 21 20 19 14 9 8 7 8 10 10 9 8 9 11 10 12 12 12 12 11 11 11 10 9 10 12 12 12 11 10 12 10 9 9 8 9 10 14 14 14 19 17 18 21 25 44 49 46 53 42 28 30 36 44 40 38 46 53 60 64 63 64 63 62 59 56
19 18 16 14 14 18 22 19 17 13 9 13 16 23 31 26 23 25 24 26 27 23 20 17 15 13 10 9 9 10 10 9 9 7 7 9 10 10 10 11 11 11 11 10 10 9 9 12 12 10 10 9 9 9 9 9 9 8 8 12 13 13 17 16 16 16 21 42 46 45 57 46 27 33 40 39 41 41 36 42 59 63 60 62 61 60 58 54
20 18 15 14 14 17 20 18 16 13 10 12 16 24 30 26 22 23 22 18 16 16 16 14 13 12 11 11 12 12 10 8 8 6 5 7 9 10 10 10 11 11 10 9 10 10 11 11 10 8 8 8 9 8 9 9 8 9 8 10 11 12 17 14 13 15 19 33 39 34 44 42 25 29 38 36 40 43 34 34 43 48 50 53 53 55 56 54
21 18 16 14 13 17 19 16 13 11 11 13 19 27 27 24 24 24 23 19 15 13 12 11 11 10 9 9 11 11 10 8 7 6 5 6 9 9 9 9 10 10 9 9 10 11 12 10 8 8 7 8 9 8 8 9 8 8 7 9 12 12 16 17 16 19 18 24 32 28 35 47 35 27 31 30 31 34 35 36 35 35 40 43 45 49 50 51
21 18 16 13 13 17 16 16 20 20 20 19 23 27 24 23 25 25 23 19 16 14 11 10 9 8 8 7 9 10 8 6 6 6 5 6 8 8 9 8 9 9 9 9 9 10 10 8 7 7 8 9 9 9 8 8 8 8 7 8 12 10 10 15 18 21 21 22 26 23 32 45 38 29 31 30 29 31 35 38 36 34 37 41 42 43 45 47
21 19 17 13 14 16 16 26 35 32 30 26 23 24 22 25 28 26 23 19 17 13 10 9 8 8 8 8 9 8 7 6 5 5 5 6 7 7 8 8 8 9 8 8 8 9 8 7 8 8 9 9 9 9 8 8 9 8 8 7 9 10 10 14 14 19 31 33 23 19 30 36 28 30 35 31 31 37 38 35 35 38 39 40 41 41 44 49
21 20 18 13 14 15 19 36 41 29 25 24 22 24 25 28 29 25 24 21 17 12 9 9 7 7 8 9 10 7 7 6 4 5 6 7 7 6 7 7 8 8 7 7 7 8 7 6 7 8 9 9 9 10 8 8 8 8 8 7 7 8 11 14 13 21 40 39 22 17 28 31 25 30 36 31 30 34 35 32 33 40 39 35 36 39 44 54
21 20 17 13 14 16 16 30 35 24 22 25 26 26 26 28 26 25 28 24 16 11 9 8 7 8 8 8 8 6 7 6 4 6 6 7 7 5 6 7 7 7 6 7 9 8 7 6 7 8 9 9 9 10 8 7 8 9 7 7 8 6 9 14 14 20 29 26 23 22 25 31 29 27 28 27 29 31 32 32 31 33 36 35 36 38 40 50
22 20 16 13 15 17 14 17 20 18 23 29 30 28 27 28 25 26 32 28 17 10 9 9 8 9 8 8 8 5 6 6 5 7 7 8 7 5 6 6 6 7 5 7 10 8 6 7 7 8 9 9 9 9 8 6 7 8 6 6 8 6 8 13 16 28 32 29 36 34 28 35 32 22 22 25 28 32 31 31 30 29 33 34 34 38 42 51
21 18 15 13 15 17 14 14 14 14 21 27 30 29 27 28 25 25 30 27 15 8 9 9 8 9 9 8 7 5 6 6 5 7 8 7 6 5 5 5 5 6 5 6 9 8 6 6 7 7 8 8 8 7 6 6 7 7 6 7 7 6 9 11 18 37 51 51 48 34 25 38 38 23 24 28 30 33 30 28 29 29 31 31 33 40 44 51
20 17 14 13 17 18 14 18 20 15 16 19 24 30 28 26 26 28 30 23 12 8 8 9 8 8 8 8 7 5 6 6 6 7 7 6 5 5 5 5 5 5 5 5 6 7 6 6 7 7 7 7 7 7 6 6 7 6 7 7 6 8 11 13 17 28 40 44 37 22 16 34 48 35 23 25 25 26 26 27 28 28 30 33 36 39 38 48
17 16 14 13 17 17 17 31 36 27 23 21 23 29 29 25 27 31 28 15 9 9 8 8 7 6 7 8 7 6 6 6 6 6 7 6 5 5 5 6 6 6 6 6 6 6 6 6 7 6 6 7 7 8 7 6 6 6 7 7 9 13 13 14 17 19 27 28 20 19 20 26 40 32 17 18 19 18 22 25 27 26 28 32 34 35 36 46
15 15 14 14 17 16 21 37 39 28 25 25 28 30 28 28 28 26 21 12 11 10 7 7 7 6 7 7 6 7 6 6 6 7 7 6 6 5 5 5 6 7 7 7 7 7 6 6 6 6 6 6 7 8 8 7 6 6 7 7 12 18 18 18 19 19 26 24 13 20 28 25 27 24 15 17 17 16 20 21 23 25 27 30 30 33 37 43
14 14 14 18 23 22 24 32 32 24 19 23 30 27 26 32 29 20 14 12 11 9 5 6 6 6 6 6 6 6 5 6 6 6 6 6 5 5 4 4 4 5 6 6 7 7 7 6 5 6 6 5 6 7 8 8 6 7 7 8 12 18 21 21 21 20 23 22 15 16 24 24 24 22 16 16 15 16 18 18 22 24 26 31 32 36 40 44
14 17 21 25 26 25 24 26 27 22 20 27 30 25 28 34 27 16 14 12 10 8 6 6 6 6 6 6 6 5 5 6 5 6 6 6 5 5 5 4 3 4 5 5 6 6 6 7 5 6 6 5 6 6 8 7 6 7 6 6 12 16 19 19 18 19 18 19 21 24 30 32 28 22 17 14 14 16 18 19 22 23 27 33 37 40 44 47
21 26 26 24 23 23 20 22 22 19 23 30 28 24 30 33 24 15 13 11 8 7 5 5 5 6 7 6 5 5 5 5 5 6 6 5 6 5 5 5 3 3 4 5 5 4 5 6 4 4 5 4 5 5 6 7 7 8 5 6 10 10 13 14 14 16 15 19 27 31 32 30 23 18 15 14 15 17 20 21 20 24 30 35 39 42 46 50
31 40 35 31 33 31 23 21 19 18 26 31 29 29 28 27 22 14 12 11 8 7 5 5 6 6 7 6 5 6 5 5 5 5 6 5 5 5 4 4 3 3 4 5 5 4 5 6 3 3 4 4 5 5 5 6 8 8 7 7 9 7 9 12 14 16 16 23 34 32 26 22 19 19 16 14 17 18 19 20 21 26 33 38 41 42 42 45
31 43 46 46 44 38 30 26 23 24 29 28 28 31 24 18 15 10 10 10 8 8 7 7 6 5 6 6 6 6 5 5 5 5 6 5 5 5 4 4 3 3 4 3 4 4 5 6 3 3 4 3 4 4 4 5 6 7 8 8 7 7 9 11 14 16 14 23 36 32 23 21 23 25 22 16 17 18 19 21 23 27 33 39 44 41 37 40
26 35 44 45 40 36 31 29 31 33 32 27 27 28 20 15 12 8 10 9 8 9 8 8 7 5 6 6 5 6 5 6 6 6 6 5 5 5 4 5 4 4 3 3 4 4 5 6 4 3 4 3 3 4 5 5 5 6 7 6 7 9 11 13 15 15 12 19 29 26 19 22 24 23 22 18 17 18 20 21 22 25 29 35 40 39 38 43
28 34 38 37 36 35 30 30 36 36 32 30 28 26 19 13 10 9 9 9 8 8 8 8 7 5 6 5 5 6 5 5 6 6 6 5 5 4 3 4 4 4 4 3 4 4 4 7 6 3 3 3 3 4 6 6 5 6 6 5 7 8 10 12 13 13 14 18 24 22 19 22 22 18 17 18 17 17 20 21 20 23 27 30 34 36 38 44
35 38 33 34 37 34 29 33 36 33 31 29 23 21 19 12 10 11 10 9 9 8 8 8 7 6 6 4 5 6 5 5 5 5 5 4 4 5 3 4 4 4 4 4 4 4 4 6 7 4 3 3 4 4 5 5 5 6 7 7 7 7 8 10 9 9 13 17 21 24 22 20 16 15 15 15 16 16 18 20 20 22 26 29 32 34 37 40
34 37 32 36 39 34 32 36 33 27 25 24 19 17 16 13 12 11 10 10 9 8 8 8 8 7 6 5 4 5 5 5 5 5 4 3 5 5 4 4 4 4 4 4 4 4 4 5 6 5 4 4 4 3 3 4 5 5 6 6 7 7 7 10 12 11 9 13 18 22 25 22 16 16 16 14 14 14 15 18 20 22 25 29 34 36 38 39
30 31 31 36 37 34 34 31 27 23 20 21 21 18 14 13 13 11 10 10 8 8 8 8 9 7 5 5 4 5 5 5 4 4 4 3 4 5 4 4 4 3 4 5 4 3 4 5 5 5 5 4 4 3 3 3 4 4 5 5 5 6 6 9 16 17 11 13 17 19 26 27 21 20 21 17 14 13 15 19 22 24 26 29 34 37 40 41
37 29 29 35 35 35 34 28 24 22 17 17 18 14 11 12 11 11 10 9 8 8 7 7 7 7 5 5 5 5 4 4 5 4 4 4 4 4 4 4 4 4 4 5 4 4 4 5 5 6 5 4 3 3 3 3 3 3 4 6 5 6 5 6 11 14 12 14 18 24 32 31 22 19 19 16 15 17 20 21 22 25 27 30 33 35 40 43
40 28 26 31 33 31 29 27 25 22 19 18 15 12 14 14 12 12 11 10 10 9 8 8 7 7 7 6 7 7 5 5 5 4 4 4 4 5 5 5 5 4 4 4 4 4 4 5 6 8 8 7 6 6 5 3 4 4 4 5 5 5 6 7 7 8 13 17 18 25 34 29 21 19 18 16 17 21 22 21 23 25 29 32 34 35 39 44
40 30 22 22 27 28 25 24 22 20 23 26 21 17 19 18 15 14 12 12 11 10 13 13 9 8 8 6 7 8 6 6 6 5 5 4 5 5 4 5 5 4 5 6 4 3 4 5 7 9 11 10 10 9 7 4 4 4 5 5 6 5 5 7 8 8 15 19 19 26 32 27 22 19 18 20 20 20 21 22 23 25 28 33 35 38 44 49
43 33 22 17 21 21 20 21 19 18 25 30 27 21 21 26 25 16 12 14 11 10 16 16 11 10 10 9 11 10 8 7 7 6 6 5 5 5 4 5 4 4 7 8 6 5 5 5 6 8 10 9 9 8 5 4 5 5 6 6 6 6 5 7 8 9 13 17 23 31 29 22 22 19 18 22 21 20 22 22 23 26 29 37 42 46 51 55
43 34 27 26 26 20 16 18 16 16 20 24 28 26 24 35 38 22 14 18 16 12 15 14 12 15 15 14 15 14 12 11 11 9 7 6 5 5 6 5 4 7 9 6 5 6 6 7 6 6 7 6 6 6 4 4 6 5 6 5 4 5 6 6 7 7 8 13 24 31 25 20 21 18 19 22 20 19 21 21 24 29 33 42 48 49 51 53
39 33 31 34 34 25 22 24 22 21 19 18 27 28 24 40 52 36 19 18 20 21 18 14 14 19 19 15 14 15 15 15 14 13 11 9 8 7 7 5 5 8 8 5 5 7 7 7 6 5 6 5 4 5 4 4 5 5 5 5 5 5 5 5 6 6 6 10 20 26 21 20 20 17 19 21 18 17 20 23 27 31 37 45 49 47 47 48
40 39 36 38 36 28 27 28 24 23 20 18 24 25 23 40 56 43 20 15 30 38 27 16 16 19 19 15 11 15 19 19 19 17 15 13 12 10 8 6 5 5 5 5 5 6 7 8 7 5 5 5 4 4 4 4 5 6 5 5 6 5 5 5 5 5 5 9 16 19 18 18 18 17 18 18 17 19 23 27 30 33 41 48 48 46 45 43
47 50 46 43 36 28 27 25 21 21 19 17 20 21 20 27 36 31 16 17 38 45 28 19 18 17 19 21 17 16 17 18 19 18 16 15 16 16 13 9 6 5 5 6 5 6 7 7 7 7 6 6 5 4 4 5 6 7 6 6 6 5 5 5 6 6 6 8 12 13 16 18 14 14 19 21 23 26 27 30 33 36 42 45 43 42 40 40
53 55 52 49 41 33 31 26 20 20 19 18 20 23 23 23 22 22 18 18 29 31 21 19 18 14 18 25 27 22 14 13 17 15 14 15 16 17 14 10 8 7 5 6 6 6 7 7 7 7 8 7 5 4 4 4 6 6 6 6 5 5 6 6 5 6 6 6 8 9 14 20 19 19 25 27 27 29 29 32 36 37 40 41 40 40 40 42
55 56 55 54 47 36 30 24 18 19 22 22 23 24 25 24 20 20 23 22 23 23 20 18 17 16 18 23 28 24 16 14 16 14 14 15 14 13 12 9 10 9 6 6 6 6 7 7 6 7 9 9 6 5 5 4 5 7 7 7 7 7 7 5 6 10 10 8 11 16 21 27 27 25 26 26 26 29 29 31 36 39 41 43 40 39 43 46
Wind_Speed
18 18 19 19 19 20 20 21 21 22 22 21 20 20 19 16 14 14 13 12 11 10 10 8 8 9 9 10 10 10 9 10 10 11 12 7 6 10 10 8 8 9 10 9 5 6 8 10 10 8 8 11 14 5 6 6 8 4 0 4 4 6 5 3 3 6 9 8 5 3 2 6 5 4 4 4 6 5 5 9 10 10 13 14 15 16 14 14
18 18 19 19 19 20 20 21 22 22 22 22 21 20 19 16 14 14 13 12 11 10 9 8 8 8 9 10 9 9 9 9 11 13 12 7 6 8 7 6 6 8 9 8 3 7 8 9 6 6 8 12 11 2 7 10 7 2 3 5 5 7 5 4 7 9 11 10 8 5 5 7 5 2 3 3 4 6 5 9 10 11 13 14 14 14 13 14
18 19 19 19 20 20 21 21 22 22 23 22 21 20 18 16 14 14 13 12 11 10 9 8 7 8 9 9 9 9 8 10 12 13 11 6 4 5 5 5 6 8 8 5 4 8 11 12 11 10 10 10 9 8 8 9 5 3 6 4 5 7 7 8 9 11 12 12 10 8 8 8 5 2 4 3 4 6 3 3 7 11 12 13 13 12 13 13
19 19 19 20 20 21 21 22 22 22 23 22 21 20 18 15 14 14 13 12 10 10 9 7 6 7 8 8 8 8 9 10 7 7 9 7 4 5 5 5 7 7 7 3 5 12 14 13 14 12 13 10 6 9 10 10 6 6 7 6 8 8 9 10 9 13 13 11 10 9 8 6 5 4 4 4 3 4 1 2 4 11 12 13 13 12 13 13
19 19 20 20 21 21 21 22 22 22 22 22 21 20 18 15 15 14 13 12 10 9 8 6 5 6 7 7 7 7 8 5 2 5 8 8 6 6 5 5 7 6 7 3 5 14 14 15 16 13 13 9 6 9 10 11 8 7 10 12 13 10 10 10 9 11 11 12 12 10 6 3 3 3 3 3 1 4 3 2 6 10 11 12 13 13 13 12
20 20 20 20 21 21 22 22 22 22 22 22 21 20 17 15 14 14 12 11 10 9 7 5 5 6 6 6 7 6 6 3 2 2 6 8 8 6 5 6 6 6 7 5 9 14 13 17 16 8 6 4 6 10 10 13 11 7 10 13 13 13 12 12 11 10 10 11 9 7 6 6 5 2 3 2 2 5 5 6 10 9 10 11 11 12 12 12
20 20 20 21 21 21 22 22 22 22 22 22 21 19 16 14 13 12 12 11 9 8 6 5 5 5 5 5 7 6 9 8 4 4 5 6 8 6 6 6 6 6 6 5 11 13 13 17 14 11 7 3 7 9 8 12 14 8 8 11 13 14 14 15 12 11 13 10 8 10 9 7 6 5 5 4 5 6 6 10 12 8 10 11 11 12 11 11
20 21 21 21 21 21 22 22 22 21 21 21 21 18 15 14 12 11 11 11 8 7 5 5 5 5 4 4 6 8 11 9 7 7 7 6 6 7 7 6 6 6 5 5 10 12 13 16 14 11 10 7 6 6 4 6 11 10 8 11 12 12 13 17 16 13 15 16 14 11 10 11 11 7 7 7 7 7 7 12 13 10 11 11 10 11 10 10
21 21 21 21 21 21 21 22 22 21 21 20 20 17 15 12 10 10 11 10 8 7 5 6 5 4 4 3 6 9 6 5 7 9 9 8 6 8 7 6 6 5 5 7 10 12 12 14 13 11 13 11 6 7 7 6 7 8 10 11 9 8 10 14 16 15 13 18 19 11 9 12 12 8 7 8 8 10 12 14 14 11 12 13 12 11 10 10
21 21 21 21 20 20 21 22 22 21 20 19 19 17 14 11 10 10 11 10 9 7 6 5 4 3 3 3 7 7 2 1 5 7 8 9 7 7 7 6 5 6 6 9 11 10 11 12 12 15 14 10 7 7 9 8 7 8 12 11 9 7 6 9 11 11 11 14 16 10 8 10 13 9 5 9 13 13 14 15 15 12 12 13 13 12 11 11
20 21 21 21 20 20 20 21 21 21 20 19 18 16 13 11 9 9 10 10 8 8 6 5 4 3 3 4 10 7 5 4 1 2 6 8 7 6 6 5 5 7 9 11 11 9 10 11 13 15 11 9 7 8 10 10 9 8 10 9 7 4 1 6 10 9 9 8 8 7 7 9 11 7 6 10 15 17 14 14 15 13 13 13 13 13 12 11
20 20 21 21 20 20 20 21 21 21 20 18 17 15 12 10 8 8 10 9 8 8 6 5 4 2 2 7 15 10 3 2 2 1 4 5 5 5 5 5 6 9 10 12 13 10 10 12 13 14 11 12 6 7 9 11 13 8 6 4 4 1 2 8 11 7 6 6 5 4 4 5 6 5 10 12 14 18 13 12 16 14 14 14 13 14 13 11
20 20 21 21 21 21 20 20 21 21 19 17 16 13 11 10 8 7 8 9 8 7 6 5 3 2 3 8 11 7 4 3 4 3 3 4 5 5 6 6 8 10 11 12 13 13 13 12 14 15 13 14 6 11 9 11 16 10 7 1 1 2 2 9 8 3 4 5 4 2 1 4 5 7 11 12 17 21 16 15 17 14 15 14 13 14 13 12
21 21 21 21 21 21 20 20 20 21 19 16 15 12 11 9 8 7 7 8 7 7 6 4 3 2 6 9 5 7 5 3 5 6 5 6 7 7 8 8 10 10 11 12 13 14 14 13 15 16 13 14 5 13 12 7 9 3 8 5 4 1 3 7 6 4 4 4 3 3 2 4 3 5 7 10 16 21 20 18 15 15 16 14 15 14 12 14
21 22 21 21 21 21 21 20 20 20 18 16 14 12 10 9 9 8 7 7 6 5 5 3 3 3 7 12 6 6 8 8 9 9 8 8 8 9 9 9 10 10 11 12 13 13 13 14 14 15 14 13 11 7 9 3 2 2 4 3 2 2 3 7 8 7 6 6 4 6 3 4 4 2 4 7 9 13 12 10 15 20 19 14 16 14 11 14
22 22 22 21 21 21 21 20 19 19 17 15 14 11 9 9 9 8 7 7 5 4 2 2 4 6 7 7 3 3 5 9 12 11 11 11 10 10 8 8 9 10 12 12 12 13 12 14 15 15 15 11 10 6 6 3 1 2 4 1 1 3 1 5 8 9 9 7 6 8 4 3 3 1 1 4 5 9 8 4 10 14 14 14 15 12 11 13
22 22 22 21 20 20 21 20 19 19 17 14 13 10 9 9 9 9 7 6 6 5 5 3 2 8 11 6 4 7 8 8 9 11 12 11 11 10 6 7 9 9 12 12 13 15 13 14 14 12 12 10 9 4 4 3 3 5 5 2 2 2 1 3 6 11 15 9 4 6 4 5 4 3 4 0 3 7 7 4 7 7 6 9 7 3 6 9
22 22 22 21 20 19 20 19 19 18 16 13 12 10 9 10 10 9 8 6 6 6 7 7 4 6 11 12 7 7 9 7 8 10 10 10 11 11 8 9 10 9 11 13 13 15 13 12 11 9 9 7 7 4 4 2 1 7 9 3 2 4 1 2 8 13 13 9 4 5 5 7 2 4 4 6 6 7 9 6 5 7 5 5 3 3 2 4
22 22 21 20 19 18 18 18 18 18 16 12 11 10 9 11 11 9 7 5 6 7 4 5 11 5 4 8 6 1 2 5 8 8 9 10 10 10 10 10 11 11 11 10 10 13 11 9 8 9 6 2 6 7 2 5 7 1 9 8 2 2 3 5 8 14 14 10 6 5 3 7 3 5 6 9 10 8 11 7 7 5 5 3 1 2 3 1
22 22 21 20 19 17 17 17 17 16 16 12 9 9 9 10 7 2 0 7 14 14 9 4 14 11 5 3 4 4 2 4 7 8 10 10 9 10 12 11 12 12 10 10 9 10 10 8 8 8 6 4 7 7 7 7 7 7 2 9 3 2 5 4 7 13 16 13 3 2 2 8 5 7 10 9 5 6 7 7 7 6 3 2 2 1 2 1
22 21 20 19 18 16 15 16 15 14 14 11 8 8 9 10 6 4 6 9 16 18 17 12 12 14 10 4 1 2 4 7 11 11 11 12 11 10 11 12 11 9 10 13 12 10 9 8 9 10 12 7 5 8 8 9 8 9 5 5 3 2 4 5 7 11 15 13 5 8 4 6 4 9 10 6 3 3 2 6 12 8 6 4 4 2 2 1
21 21 20 19 17 15 14 15 14 12 12 10 6 5 8 10 8 8 11 12 15 16 17 15 13 14 13 9 4 3 6 8 11 11 13 13 13 11 10 11 10 8 10 12 11 10 8 9 10 12 15 9 6 7 8 10 9 7 5 2 2 2 4 4 7 12 12 10 7 8 4 2 4 8 9 6 5 4 1 4 9 11 9 7 5 5 4 3
21 20 20 18 16 13 13 13 12 11 10 7 5 7 10 10 8 9 10 11 14 14 14 15 15 14 13 12 10 8 8 10 10 11 15 15 15 14 11 10 10 10 11 11 10 8 7 8 9 12 14 9 6 8 9 10 8 7 6 1 4 3 3 2 8 14 9 7 7 8 4 1 2 4 6 5 5 7 8 6 6 6 5 5 6 7 6 5
20 20 19 18 14 11 11 11 9 8 9 7 8 9 10 10 8 10 10 10 12 10 12 13 13 14 13 11 9 12 12 12 11 11 15 17 16 15 13 11 10 10 11 13 14 12 12 10 7 8 8 6 7 9 10 8 5 7 6 3 3 3 0 0 9 15 9 6 7 7 3 2 2 2 5 4 5 9 10 6 5 8 7 7 7 6 6 7
19 19 18 17 13 9 7 7 5 5 7 10 11 8 7 8 7 8 9 9 8 7 10 10 10 11 11 8 7 12 12 11 13 13 15 19 16 13 12 12 10 9 11 15 15 12 13 14 12 11 7 7 8 8 9 7 5 5 5 7 3 5 6 2 9 12 7 1 4 3 3 2 2 3 6 3 4 9 7 5 6 6 5 7 6 5 8 9
19 18 18 16 12 7 3 3 2 2 6 8 6 5 4 6 7 7 6 6 4 7 9 10 10 8 10 10 9 11 9 11 15 15 14 19 18 14 11 10 9 10 10 11 12 8 8 13 15 10 6 9 10 9 10 8 6 4 5 7 9 2 6 6 6 7 5 1 0 3 3 1 2 5 8 7 6 9 5 4 6 5 3 6 6 6 8 10
18 18 17 14 11 7 3 3 5 5 8 5 2 5 5 6 7 5 4 6 4 8 10 8 8 7 9 11 13 11 5 5 14 13 11 14 16 16 12 9 8 11 12 8 7 6 7 13 13 5 6 9 9 9 9 5 6 5 7 8 9 7 3 6 6 4 6 4 2 3 0 1 3 4 7 9 9 7 4 4 5 5 4 5 7 8 8 9
18 17 17 12 9 9 7 7 8 6 6 5 4 7 6 7 8 4 5 4 2 7 8 6 5 5 7 9 15 14 4 2 11 13 12 11 14 16 12 11 10 10 12 8 6 6 7 13 12 6 8 9 6 10 12 7 6 5 10 11 9 10 6 5 9 6 7 5 2 3 3 1 2 3 4 7 8 6 6 7 6 6 5 4 8 10 10 10
17 17 16 9 7 9 7 7 8 8 7 6 6 6 6 8 7 4 6 3 3 5 5 7 7 7 9 10 15 17 9 6 6 12 16 13 14 15 10 12 14 12 12 11 10 10 7 7 8 8 7 7 7 12 13 8 5 7 10 10 11 6 6 5 5 8 6 4 4 6 4 1 1 4 4 4 6 7 7 7 7 7 6 6 9 10 9 9
16 16 15 9 6 8 6 5 7 7 8 8 6 5 7 7 6 5 5 2 4 6 7 8 8 9 11 11 12 15 12 11 5 9 15 13 15 16 10 9 12 12 12 11 13 16 13 6 6 8 10 11 9 9 10 9 8 11 10 9 11 3 4 5 6 7 4 2 5 6 7 2 2 3 4 4 6 8 8 7 7 9 7 7 9 9 9 10
15 14 13 8 5 6 4 2 4 4 5 6 4 5 8 6 5 6 3 1 1 5 7 8 8 10 13 11 10 12 12 12 8 8 10 9 11 14 10 7 7 7 9 9 11 15 17 12 7 8 12 15 14 10 10 10 9 9 7 9 8 3 3 2 3 4 1 3 4 2 7 6 2 3 3 7 8 8 10 8 9 10 8 9 10 9 9 9
13 12 11 8 6 6 5 5 4 4 3 3 4 6 8 5 5 6 2 3 3 4 5 7 9 10 13 12 10 13 12 11 11 9 8 8 9 10 10 8 6 6 8 8 8 10 12 12 11 10 10 13 14 9 7 10 10 7 6 8 6 1 2 3 0 2 0 5 5 5 10 6 3 5 4 9 9 9 11 11 12 12 10 10 10 9 8 8
11 9 8 6 6 5 7 9 8 5 2 2 6 7 6 5 4 3 3 1 2 1 1 6 8 9 12 12 9 13 13 10 12 12 11 10 9 10 12 13 11 9 7 7 8 7 8 11 15 14 9 12 13 9 8 8 6 7 7 6 5 2 2 3 2 0 1 6 4 4 3 2 5 4 4 8 10 10 12 13 14 13 11 12 12 12 11 9
8 6 5 4 4 3 3 6 7 5 3 3 7 7 6 6 2 0 3 2 2 1 1 5 8 9 10 10 9 13 11 9 11 12 11 11 9 8 11 14 16 13 8 8 8 7 9 9 12 13 9 10 13 11 12 10 7 7 7 5 2 2 3 6 2 1 3 4 3 9 2 2 2 2 2 7 10 12 13 12 13 12 12 14 14 13 12 10
5 4 3 1 1 2 1 1 3 4 4 5 7 6 5 5 2 2 2 2 1 3 3 3 6 8 9 9 9 12 10 8 11 11 9 10 9 8 9 12 16 14 9 8 6 7 10 9 9 15 14 12 12 13 14 13 9 7 7 6 4 3 4 5 5 5 5 1 5 5 2 3 2 4 5 9 11 12 12 11 11 12 13 15 14 12 12 11
3 3 4 4 2 2 2 1 3 4 4 6 7 5 4 4 4 3 0 3 4 1 5 4 6 6 7 6 6 10 11 9 9 10 8 10 11 11 10 10 15 16 12 8 6 6 8 8 9 14 16 15 13 12 12 11 7 5 6 4 5 4 4 4 6 4 2 3 3 2 3 4 5 3 2 7 11 10 10 10 12 13 14 14 11 10 11 11
0 1 5 4 3 2 1 1 2 4 6 7 6 5 5 5 4 4 2 1 6 4 1 4 6 6 6 7 6 8 11 9 8 7 7 9 9 10 11 10 12 17 17 12 7 5 5 8 9 9 11 12 13 13 12 14 11 7 5 2 4 6 4 3 4 4 2 1 2 5 7 6 4 2 2 4 8 10 10 9 12 13 12 12 10 8 8 8
1 3 6 6 8 5 3 2 1 5 7 7 7 8 9 6 2 4 4 3 6 4 6 5 4 6 6 6 8 9 9 8 8 7 7 7 8 10 12 9 8 13 18 17 10 4 5 9 6 7 8 7 9 10 10 14 16 14 9 3 3 4 3 2 3 5 4 2 2 7 7 5 3 3 6 8 9 11 11 8 9 11 11 12 11 8 8 7
2 5 6 8 10 6 3 2 3 7 7 7 6 5 9 6 1 2 4 4 6 4 6 7 2 3 6 6 7 10 10 8 7 7 7 5 6 12 14 10 9 11 13 14 11 5 4 8 6 6 9 7 7 7 8 9 13 14 12 9 6 5 4 2 1 3 3 1 2 4 2 3 4 4 6 8 9 11 12 7 6 10 10 10 9 8 7 6
4 7 4 10 10 6 3 2 6 8 7 8 5 5 10 8 3 3 4 3 6 4 4 7 3 3 6 8 6 7 8 9 7 6 7 7 6 8 12 10 9 11 11 11 10 7 6 7 8 5 9 7 6 7 9 9 8 9 9 8 7 5 5 4 2 2 1 0 1 3 3 3 5 5 6 9 9 9 11 8 7 10 10 8 8 8 7 6
6 8 4 11 9 7 4 4 7 8 6 5 7 8 8 5 4 4 3 2 5 6 5 7 7 4 7 9 5 8 7 8 9 7 6 8 7 6 10 12 10 9 10 10 10 8 7 6 8 7 5 6 8 8 11 11 10 9 7 8 8 7 6 6 4 3 3 4 3 2 4 4 5 4 2 3 7 9 11 9 8 10 9 6 7 7 7 5
6 6 3 8 8 6 5 7 7 8 7 6 10 11 3 2 6 7 3 3 4 5 4 5 10 8 6 6 1 7 7 6 9 10 5 7 9 7 9 14 13 11 8 7 9 10 8 6 8 9 6 7 10 10 12 13 14 14 10 7 8 7 7 7 3 2 2 3 4 4 4 2 6 7 4 1 6 11 13 12 10 11 9 5 5 6 6 4
8 7 2 6 9 7 7 7 5 7 8 7 12 12 4 2 7 5 2 4 2 3 4 5 7 7 4 4 3 6 10 7 9 10 7 9 9 6 9 11 10 10 7 5 8 10 9 6 7 8 9 9 8 7 11 12 12 13 11 7 8 9 7 6 4 4 3 2 4 5 3 1 2 4 3 6 12 16 16 12 10 10 9 5 5 5 6 3
13 14 5 6 8 8 8 6 4 5 6 10 10 5 4 6 7 6 3 3 3 3 3 2 2 3 3 4 5 2 4 6 11 10 6 5 5 11 9 7 7 8 7 6 7 8 8 7 6 7 8 7 7 7 9 12 10 9 8 7 11 13 8 4 4 4 2 2 1 4 3 2 3 3 5 9 14 17 17 14 11 10 9 8 9 7 6 4
12 11 7 9 9 10 11 8 7 3 4 12 12 3 6 11 12 12 7 3 4 2 2 3 3 3 2 1 3 3 3 4 6 6 4 3 7 9 8 6 7 10 7 8 10 7 6 7 6 6 8 6 6 7 5 7 7 5 7 10 12 12 9 5 4 5 2 2 3 5 4 4 5 5 7 11 12 15 16 13 10 10 10 9 9 8 6 5
9 6 5 8 10 11 15 13 12 6 2 9 7 2 3 6 10 14 6 4 7 1 3 5 5 3 1 3 4 4 3 5 6 4 5 6 5 7 7 4 9 7 3 1 7 5 4 6 7 9 10 8 6 7 3 2 4 6 9 13 13 11 10 8 6 6 2 3 6 7 10 9 8 7 8 11 11 12 13 11 11 11 10 10 10 9 7 5
8 5 5 3 4 9 11 10 11 8 3 4 3 3 2 2 7 12 4 1 10 4 3 6 5 7 5 6 6 5 4 4 5 5 5 6 2 5 6 3 10 3 7 4 8 5 3 7 9 11 14 13 13 12 9 6 8 11 12 13 14 14 14 12 11 8 3 2 3 9 13 12 10 9 10 10 8 9 11 11 11 11 10 10 10 9 7 5
7 8 9 10 5 7 5 6 10 11 9 5 2 5 3 5 7 13 4 5 8 12 7 6 7 11 8 1 2 1 7 7 5 7 6 4 5 1 5 7 9 5 3 7 8 5 5 7 9 12 14 15 17 18 15 10 10 13 12 10 12 15 16 15 13 10 6 3 3 10 12 11 10 10 13 13 10 9 12 13 12 12 9 9 10 8 5 3
12 10 12 14 11 11 10 10 11 11 12 8 3 8 6 5 3 11 5 1 5 13 14 4 6 11 10 2 4 4 4 4 2 5 7 6 9 9 3 5 9 11 8 8 7 6 5 7 10 13 12 12 16 17 16 12 10 9 10 13 16 13 12 14 12 10 9 5 9 13 12 11 11 12 14 15 11 12 17 16 13 12 10 9 9 6 3 3
13 10 13 18 15 13 13 13 11 9 8 7 5 7 7 3 3 6 8 3 6 4 14 6 4 9 10 10 6 4 8 2 1 3 6 7 7 8 5 4 5 8 10 7 6 8 6 7 9 11 10 10 14 16 15 12 10 10 11 14 14 12 11 11 10 9 7 6 10 13 11 8 10 13 14 14 16 18 17 15 14 12 10 8 7 5 3 3
13 9 11 14 11 10 12 11 9 7 6 5 3 3 4 6 5 5 7 5 5 7 6 6 5 7 9 13 13 8 7 4 3 6 9 10 8 8 8 7 7 4 8 6 6 7 7 6 8 8 8 8 10 13 16 17 16 14 14 13 11 10 11 10 9 10 10 8 10 11 7 7 9 14 18 20 20 18 15 14 13 12 10 6 6 7 5 3
17 11 10 10 8 9 10 9 9 8 5 3 2 5 6 6 8 8 6 6 4 2 3 5 7 8 4 6 7 11 9 7 8 11 13 15 15 15 13 11 11 9 4 5 7 7 6 6 7 6 6 7 7 10 13 15 15 12 8 7 10 12 14 11 6 11 14 8 3 2 5 11 13 14 15 16 16 14 13 12 11 12 11 7 7 10 7 4
Wind_Direction
344 342 342 343 344 343 343 343 344 346 347 349 349 349 348 344 341 335 331 330 331 334 332 325 317 318 317 315 314 308 305 299 294 292 282 262 240 256 280 304 306 316 317 329 332 233 245 245 235 256 277 272 249 237 8 2 34 5 310 62 13 34 36 4 57 103 111 113 116 131 114 90 81 47 57 80 71 47 61 79 75 80 93 106 120 127 128 132
342 341 341 340 341 341 341 341 342 344 345 347 348 348 347 343 340 335 332 328 328 331 329 324 317 318 318 318 318 311 305 298 289 278 274 275 257 256 277 295 309 312 320 344 295 234 275 290 280 278 284 286 281 346 48 47 50 333 35 59 30 43 67 61 81 104 106 116 123 117 93 83 86 72 63 51 37 34 70 96 92 94 102 110 117 123 129 137
340 339 339 338 339 339 339 339 340 342 343 345 346 347 345 343 340 335 331 326 327 328 327 323 318 318 320 322 319 313 307 299 290 272 265 279 264 251 268 283 304 311 328 342 248 264 298 309 312 300 287 290 317 11 46 53 55 72 54 55 60 62 86 82 83 95 99 109 112 100 86 78 73 52 55 65 48 34 33 93 117 121 120 126 126 132 138 141
339 338 337 337 336 336 336 337 338 340 341 342 344 345 344 343 339 336 331 327 326 324 325 320 318 320 320 323 318 315 311 301 281 234 241 266 267 250 259 281 294 307 332 335 247 281 296 298 297 289 282 286 343 19 33 40 38 63 62 74 85 83 86 84 89 92 91 96 93 86 86 73 51 46 77 117 92 63 4 312 130 139 139 140 139 143 145 146
338 337 336 335 335 335 334 334 336 338 339 341 343 343 344 344 340 337 332 329 325 322 325 318 319 319 320 324 316 314 308 302 152 180 233 257 260 250 245 268 286 304 318 336 286 287 293 293 288 271 255 265 5 28 21 32 48 49 60 85 98 100 97 101 107 98 94 99 90 68 75 115 97 80 111 170 136 96 186 229 121 138 146 147 150 150 149 155
336 335 335 335 334 333 332 333 335 336 337 339 341 342 343 344 342 341 338 334 326 322 323 319 324 319 324 321 307 302 279 290 77 239 264 257 249 239 236 260 279 296 308 318 288 288 300 298 300 303 255 233 36 43 27 29 48 46 55 73 88 98 110 121 119 115 109 98 97 106 136 156 137 142 191 200 96 118 183 169 129 138 154 153 154 154 157 161
333 332 332 334 333 333 332 332 333 335 336 337 340 341 342 345 346 347 345 340 332 329 327 324 327 321 328 315 299 276 256 270 268 262 299 274 241 225 228 256 274 289 315 311 279 292 311 310 333 351 332 49 54 50 42 36 43 46 63 63 70 82 99 117 120 128 125 105 110 137 144 167 170 167 192 183 145 152 167 159 148 143 155 159 160 160 161 163
331 330 330 331 332 332 331 331 333 334 334 336 340 340 342 346 346 350 348 345 341 337 337 329 331 329 325 305 290 270 251 241 217 243 300 291 239 219 227 250 270 287 315 304 286 301 313 322 356 356 330 8 37 44 50 47 40 40 66 67 73 79 92 118 135 149 142 129 135 155 166 185 185 167 185 187 173 175 165 162 156 144 158 164 164 164 163 165
331 330 330 329 330 330 330 331 332 332 333 334 338 339 341 345 344 349 350 349 346 338 343 335 331 330 317 294 281 275 249 208 220 245 275 289 256 223 225 241 267 295 306 287 287 299 313 328 351 345 329 337 4 40 48 56 40 35 58 60 67 82 99 120 135 144 137 130 139 164 183 181 174 164 185 190 189 181 167 170 165 154 168 168 163 168 166 168
333 333 332 331 329 328 328 329 331 332 332 334 338 338 340 344 339 343 348 350 349 341 341 336 336 330 305 284 277 268 145 91 280 256 260 277 261 228 228 232 262 294 285 283 290 302 317 326 330 323 317 317 343 38 54 66 55 36 51 55 55 56 78 100 108 115 111 124 141 161 185 175 170 176 180 183 191 179 171 180 178 170 173 169 164 169 172 175
336 336 337 335 331 327 326 327 330 331 331 334 337 336 338 342 335 338 347 346 348 347 341 340 347 322 279 259 271 259 125 102 338 263 260 264 253 239 229 215 236 270 273 283 291 303 319 323 320 315 315 326 349 48 59 79 91 54 43 51 72 65 31 91 84 81 90 109 122 139 169 170 180 189 155 171 177 172 184 183 177 184 178 169 168 170 175 179
337 338 340 340 335 329 325 325 328 330 332 333 335 335 334 339 333 330 342 344 345 350 345 345 349 320 299 262 258 249 177 163 153 168 252 247 249 245 228 216 232 258 272 282 289 304 319 319 315 311 316 321 338 74 56 64 69 28 8 46 83 164 287 76 75 65 78 88 87 117 159 159 198 182 149 160 149 154 182 176 169 183 179 173 176 175 176 181
335 338 339 341 339 332 325 323 326 329 331 332 334 332 328 333 330 322 334 339 340 347 349 352 351 328 299 273 252 217 174 204 211 212 224 219 233 239 238 241 246 260 270 275 284 297 305 308 307 306 307 306 335 99 98 64 51 357 310 323 176 218 87 81 88 93 69 79 113 176 88 109 177 157 149 154 136 143 169 182 177 179 184 185 181 179 182 187
331 333 335 338 338 334 327 322 324 328 330 331 331 327 322 326 323 316 321 327 335 344 348 349 335 311 265 271 240 181 201 229 238 238 217 211 220 233 241 247 254 260 266 271 280 286 292 296 294 292 287 281 287 107 109 64 55 330 291 281 244 238 89 93 110 133 101 105 135 269 356 75 115 118 129 147 143 147 167 182 164 163 187 188 180 184 190 189
325 327 329 331 333 333 329 322 322 326 328 328 327 322 315 316 316 312 306 312 325 329 344 10 346 322 268 264 229 206 253 249 237 234 214 216 221 229 235 241 253 259 263 270 276 281 286 288 288 285 284 275 253 156 117 56 44 210 259 261 276 348 106 121 137 142 119 118 60 350 351 55 46 75 119 146 148 139 156 173 143 160 185 183 182 188 196 194
321 321 323 325 326 329 329 323 320 323 327 326 324 317 307 308 310 304 299 298 300 303 319 41 351 317 285 270 219 209 261 236 228 225 215 218 220 233 240 237 249 260 263 266 271 276 279 279 280 276 281 287 257 215 130 131 153 216 238 204 30 323 74 125 155 135 101 105 48 9 0 16 28 17 66 139 131 111 128 144 126 153 168 165 183 194 204 199
318 318 319 320 321 324 326 324 320 321 326 325 321 313 300 299 296 293 296 282 276 276 249 229 310 290 266 266 281 247 233 223 214 205 207 214 218 236 256 245 249 257 258 264 264 266 270 270 273 268 257 253 251 236 124 202 214 168 218 277 129 158 51 121 139 97 81 89 46 10 355 342 30 34 338 175 125 99 109 116 113 124 132 150 181 197 197 187
317 317 317 317 318 320 322 322 319 319 325 327 321 310 292 290 287 281 283 283 275 259 252 238 223 279 253 234 255 254 227 204 181 188 200 210 219 235 251 249 257 261 258 263 255 251 257 257 263 275 257 246 267 258 147 249 304 146 174 201 147 167 160 97 109 98 90 93 52 5 340 319 31 92 357 5 23 61 69 46 81 114 117 132 150 69 99 172
317 316 316 316 316 317 319 320 318 318 324 328 322 307 293 292 284 275 272 265 241 235 262 206 203 273 321 216 217 198 170 151 163 193 202 210 216 226 243 251 260 265 262 261 242 229 242 255 249 259 269 269 280 284 341 345 348 72 163 160 202 187 98 55 102 124 119 96 55 29 343 301 345 84 71 37 9 35 71 46 24 66 105 92 171 114 89 206
317 316 316 316 315 316 317 317 316 317 322 329 328 310 309 312 288 251 242 233 232 246 282 245 214 249 305 220 192 169 173 156 190 215 208 210 212 221 235 242 251 254 257 264 252 222 224 254 253 256 279 256 264 308 345 330 318 313 211 153 159 54 96 99 115 122 113 96 80 153 211 277 322 59 75 72 29 28 87 116 71 42 50 39 275 174 79 178
317 316 315 316 316 316 316 315 313 316 320 325 330 310 321 346 340 348 339 269 247 248 258 253 235 243 250 258 204 194 255 225 211 222 219 208 209 222 221 223 241 241 238 252 264 253 230 244 258 268 281 278 319 339 322 302 290 296 304 128 110 35 121 148 124 115 109 103 163 189 176 284 336 76 88 87 74 40 45 117 115 138 163 156 204 163 77 100
318 315 316 317 315 317 316 313 312 315 317 315 317 303 317 347 345 326 323 296 275 259 245 240 240 248 253 260 257 259 275 235 207 210 213 200 201 217 204 203 232 244 240 240 251 261 241 243 255 260 271 286 338 316 278 283 280 279 285 134 76 60 132 145 115 111 109 103 151 176 141 322 9 79 124 148 153 157 88 62 114 149 154 146 150 109 101 106
318 316 316 316 317 321 317 313 315 313 315 309 285 284 305 324 325 317 309 287 283 266 238 228 227 236 240 240 234 225 241 241 225 204 197 194 199 214 217 211 225 239 245 239 235 248 247 244 242 249 267 287 304 289 276 273 270 280 278 193 68 68 133 153 100 93 87 90 137 164 137 88 4 66 113 121 122 115 90 66 66 88 93 106 113 94 94 96
318 316 315 316 319 325 320 324 335 331 331 328 303 283 293 313 317 321 309 278 278 260 229 218 219 228 227 226 218 206 219 237 238 212 188 193 202 210 229 237 233 234 240 247 243 242 255 263 259 263 286 306 291 278 276 276 285 306 322 38 103 138 62 247 118 101 85 91 143 171 124 77 262 126 104 91 99 87 82 94 65 56 63 69 74 80 86 79
318 316 315 316 322 329 330 346 10 359 323 306 309 299 288 312 317 324 314 274 259 228 207 200 208 220 208 194 190 197 219 235 236 230 191 191 207 207 220 236 242 242 232 242 250 245 253 266 268 265 267 273 272 268 276 297 307 307 16 7 300 134 92 122 138 109 79 98 191 199 38 51 231 147 124 140 123 96 91 112 88 73 83 89 83 79 83 72
317 315 314 315 323 330 339 350 337 307 300 285 304 323 308 315 316 321 311 271 229 175 172 180 190 194 184 180 179 195 229 226 220 233 199 188 210 218 222 224 229 254 248 239 251 254 249 250 253 263 276 269 268 271 281 300 290 276 62 1 322 84 136 166 146 100 99 199 230 61 16 331 131 126 144 157 125 105 109 109 96 103 108 102 100 77 77 80
317 313 310 314 325 322 294 277 258 271 316 326 331 326 321 311 318 328 279 254 210 163 153 165 181 179 190 190 181 192 248 210 195 215 198 180 205 222 234 233 215 240 259 266 261 252 252 250 248 272 293 271 267 268 273 279 271 295 43 19 323 299 244 131 109 82 118 136 40 67 287 304 73 119 151 141 115 104 118 109 92 99 86 90 110 94 81 84
316 310 307 314 324 315 296 276 260 250 298 329 322 313 314 306 318 320 266 269 145 155 144 147 160 159 185 184 188 204 244 193 183 185 185 186 202 210 224 246 246 240 240 252 261 244 239 247 251 259 257 256 262 264 270 276 260 295 17 7 310 299 328 97 117 93 85 91 309 265 224 217 91 102 127 124 122 129 139 130 109 102 100 90 90 83 80 87
314 306 304 315 325 309 294 280 272 244 244 280 301 303 304 302 304 273 261 278 153 176 144 144 156 170 185 177 196 212 210 213 199 161 177 199 208 213 229 242 253 267 251 237 246 256 242 237 281 303 268 249 235 244 265 296 296 301 343 331 280 281 348 2 88 100 87 81 251 233 177 188 19 102 133 142 141 145 132 124 122 120 121 96 81 81 88 92
310 301 300 315 322 300 298 303 295 268 250 263 284 301 299 290 277 250 244 233 176 160 131 148 168 182 189 178 194 210 206 212 212 155 178 194 200 217 251 249 246 265 261 243 239 253 259 258 303 298 273 277 271 262 294 325 314 298 307 290 276 310 34 358 62 102 122 129 233 206 138 179 309 97 153 151 140 146 131 125 130 122 116 109 104 96 83 77
304 298 300 309 302 282 294 330 311 299 273 272 293 299 284 260 246 261 244 150 188 153 149 166 170 176 188 191 189 194 210 208 181 170 182 181 194 211 231 242 243 250 253 252 238 244 254 255 264 259 259 280 288 291 306 302 280 274 280 273 280 15 28 298 75 79 13 311 293 129 145 201 206 68 105 119 122 131 128 132 131 122 118 116 108 89 69 71
302 298 298 301 287 262 230 200 238 273 246 264 293 278 272 246 224 255 239 160 188 189 184 169 164 175 187 204 193 179 208 204 168 188 198 182 199 205 211 220 211 217 235 239 229 239 249 247 251 253 243 248 262 271 269 267 260 245 250 265 267 336 350 302 75 71 176 256 285 118 162 197 74 39 47 100 104 99 112 123 123 125 128 118 105 91 78 76
306 302 298 295 287 265 226 220 239 256 218 252 282 263 261 259 226 253 278 222 113 70 190 156 165 184 184 202 200 177 205 205 169 193 209 200 207 195 202 221 218 219 230 230 231 237 239 232 232 241 239 222 233 253 251 243 240 229 232 254 277 306 316 293 232 98 178 229 287 46 168 188 70 32 19 86 96 94 104 111 115 122 123 114 102 97 102 103
314 314 308 298 298 300 242 237 237 234 213 238 267 255 247 270 300 324 282 302 31 27 225 148 161 185 190 208 202 172 200 216 178 188 202 202 216 202 195 214 223 228 231 237 246 237 236 236 218 222 228 211 213 228 250 265 274 276 275 266 253 156 273 303 291 281 279 212 52 33 12 209 118 227 208 107 107 107 108 109 118 128 127 121 108 99 110 118
346 355 332 343 343 356 62 216 195 191 203 237 259 255 247 279 316 245 260 359 317 189 145 128 175 186 191 218 214 178 195 223 191 191 209 205 211 214 203 203 212 225 233 231 240 241 246 254 228 216 212 211 216 213 231 261 273 281 280 260 242 188 214 286 282 279 301 89 77 54 132 182 187 215 181 135 122 114 117 126 132 126 110 104 105 113 127 126
19 24 343 349 341 355 53 107 154 166 201 246 258 254 252 275 283 266 62 19 304 225 124 163 207 200 182 204 224 188 195 220 198 192 211 213 216 218 217 204 195 207 227 231 228 236 247 258 247 224 205 206 222 213 212 237 247 261 267 274 314 288 237 247 251 262 338 78 82 86 146 159 167 192 182 140 133 127 137 145 133 117 99 93 103 126 134 128
301 227 303 296 229 240 344 47 118 176 218 253 267 266 270 266 276 307 20 306 301 320 196 194 197 209 191 187 210 191 190 202 193 200 207 201 218 225 221 217 191 196 217 235 249 257 270 272 254 215 199 202 214 218 214 220 234 257 261 358 353 292 281 315 289 278 271 97 110 166 170 158 156 197 251 172 152 147 147 134 122 121 117 116 126 130 123 122
235 240 276 242 200 217 292 28 138 215 234 257 259 259 272 277 292 328 343 303 297 288 257 248 189 206 218 194 186 177 184 191 173 195 219 195 197 208 215 224 197 191 209 221 238 292 317 292 262 182 194 204 198 218 227 214 222 242 253 289 322 279 285 331 294 289 293 18 110 179 171 131 130 200 201 193 183 161 144 132 139 146 140 134 141 139 129 126
258 275 260 203 191 215 305 6 231 236 245 255 256 265 277 280 272 320 338 307 284 262 255 264 217 211 252 232 181 162 180 200 176 180 213 204 171 185 202 212 195 190 203 214 229 254 273 283 282 187 188 205 191 208 243 225 212 230 255 277 283 273 264 240 266 305 299 337 154 170 128 110 158 189 191 186 191 165 144 146 157 145 137 138 144 144 140 141
280 286 222 166 181 212 265 293 245 240 242 249 265 273 270 285 0 343 328 296 272 275 279 275 243 194 247 241 191 156 182 208 212 206 203 185 144 169 199 209 205 191 191 213 234 240 227 245 270 226 176 208 230 200 221 240 222 217 232 250 260 264 262 259 269 262 239 273 191 136 91 88 139 170 186 174 179 163 139 147 155 133 128 138 144 144 145 147
277 279 175 155 187 213 228 251 238 237 243 253 266 259 259 308 341 299 291 280 273 278 285 290 288 278 268 256 193 153 185 212 219 226 209 181 171 202 211 200 206 200 183 208 229 228 230 241 261 254 183 209 241 210 208 232 244 239 221 223 241 248 257 264 259 273 336 19 359 72 106 62 59 93 125 149 160 144 126 128 130 118 114 127 143 145 149 149
266 270 133 163 206 209 219 246 242 241 241 234 256 269 295 5 283 282 265 194 242 262 230 250 275 270 254 266 209 152 182 214 228 225 199 191 204 211 185 171 192 213 193 204 225 215 225 254 261 263 257 239 229 205 200 217 237 250 250 243 247 246 257 270 264 280 317 77 66 66 103 25 29 68 68 124 145 122 109 109 109 109 114 137 164 154 154 146
285 299 29 178 208 206 225 257 263 252 254 239 238 252 278 227 245 272 246 200 226 263 212 210 258 272 262 298 318 191 186 196 232 224 185 197 204 142 120 138 178 214 201 199 221 203 203 243 259 262 275 277 267 230 207 208 224 242 244 244 262 261 251 261 277 278 269 183 117 96 130 223 24 70 102 142 126 102 98 115 131 125 123 156 188 158 146 130
308 302 291 193 198 211 229 256 268 252 296 299 266 257 325 294 274 282 263 218 229 250 258 252 269 287 291 313 325 261 194 193 213 218 203 195 142 110 121 145 173 210 208 197 206 185 182 217 238 255 267 264 272 267 219 197 207 239 242 230 245 257 257 257 267 269 290 307 83 108 115 116 113 79 62 96 111 107 112 131 144 133 138 179 187 155 127 105
311 291 254 209 196 215 237 266 292 289 328 293 279 341 344 307 299 292 282 259 237 205 8 304 268 254 222 248 298 305 316 273 228 237 262 204 142 140 149 153 193 223 215 193 203 197 189 204 204 231 256 238 237 264 234 182 191 227 255 260 258 268 286 296 286 279 287 349 40 94 104 104 131 136 91 92 108 119 127 138 140 142 160 173 164 143 116 98
305 294 255 216 197 216 239 254 266 258 262 277 277 7 316 300 298 281 271 300 285 66 72 259 259 293 358 35 314 265 242 256 254 261 245 218 173 139 118 140 216 228 40 74 239 249 231 223 212 218 245 260 262 279 292 181 208 214 226 249 260 270 274 261 256 262 233 82 68 111 141 147 149 149 126 117 126 135 142 150 148 148 152 139 129 124 113 117
292 314 347 335 234 234 238 247 260 261 276 303 337 328 271 72 306 279 163 189 285 356 29 281 336 6 3 35 1 320 343 316 298 314 272 254 337 83 100 226 232 228 20 318 255 270 259 238 234 226 238 256 264 264 257 231 237 244 232 224 226 238 254 258 258 260 248 101 112 143 151 153 152 151 139 138 161 168 156 152 146 145 147 134 120 115 118 141
324 319 343 4 331 267 281 315 307 303 302 313 351 266 235 103 300 285 159 164 306 356 339 282 9 351 308 40 131 300 356 351 338 343 323 302 324 308 164 199 217 208 282 258 233 245 267 251 246 239 232 238 250 258 264 264 254 255 263 261 240 224 224 237 249 254 258 271 143 145 153 156 156 157 154 163 190 178 146 138 136 135 134 121 114 121 137 130
357 331 331 352 332 300 308 308 294 288 287 290 248 246 240 128 236 273 270 141 10 342 310 288 38 325 296 258 167 151 41 345 321 352 339 332 322 306 234 191 208 196 202 240 231 214 249 264 255 255 246 233 241 252 263 276 275 259 261 272 273 261 235 237 253 254 235 193 133 139 158 169 163 161 167 176 176 143 129 130 132 128 120 114 120 134 135 85
2 343 330 335 324 306 301 290 281 279 272 258 236 251 263 239 226 266 290 345 101 278 295 332 14 313 341 12 355 95 90 45 301 341 319 315 318 309 302 290 246 188 182 230 238 185 200 252 253 260 263 241 235 239 241 249 262 265 256 251 260 276 275 269 283 291 266 203 165 164 165 161 154 144 137 133 122 116 120 126 126 122 118 122 132 129 109 76
354 339 324 322 316 312 308 296 284 281 270 247 243 315 290 276 317 327 296 313 122 172 271 327 313 312 16 19 348 357 54 47 303 289 293 295 296 286 282 298 304 243 179 207 238 192 188 238 250 252 261 251 237 234 232 228 227 238 255 262 265 273 277 271 267 275 270 241 222 211 172 122 120 124 116 111 112 115 122 123 119 114 112 119 126 111 97 75
352 349 334 318 300 292 295 287 272 271 292 317 334 338 317 305 324 322 305 319 341 54 19 343 316 314 10 49 347 326 342 346 305 292 289 285 283 277 274 282 291 286 236 202 227 211 193 228 247 246 255 266 260 251 247 236 226 227 248 284 297 283 268 260 280 316 311 290 259 256 125 113 115 124 123 119 121 121 121 117 113 118 122 124 131 125 109 81